Wind_Speed
53 53 54 54 54 53 53 52 52 51 51 50 49 47 46 44 43 42 41 40 38 37 35 34 33 33 32 31 31 31 30 30 30 30 30 30 31 32 32 33 33 34 34
55 55 55 56 56 56 55 55 55 54 54 52 51 50 48 46 45 44 44 42 40 39 37 37 36 35 34 33 33 33 32 32 32 32 32 32 33 33 34 34 35 35 36
58 58 58 58 58 58 58 57 57 57 56 55 54 52 50 49 48 47 45 44 42 41 40 39 38 37 36 36 35 35 34 34 34 34 34 34 34 35 35 35 36 36 36
60 60 61 60 60 60 60 60 59 59 58 57 56 55 53 52 51 50 47 46 45 43 42 41 41 40 39 38 37 37 36 36 35 35 36 36 36 36 36 37 37 37 37
63 63 63 63 63 63 62 61 61 61 61 60 59 57 56 55 54 52 50 49 47 46 45 44 43 42 40 39 39 39 38 37 37 37 37 37 37 37 37 38 38 38 39
66 66 65 65 64 64 63 63 63 63 63 62 61 60 59 58 57 54 53 51 49 48 47 46 44 43 42 41 41 40 39 39 38 39 38 38 38 38 39 39 39 39 40
66 66 66 66 65 64 63 63 63 63 63 63 63 63 61 61 59 57 56 54 52 50 49 48 47 45 44 43 43 41 41 41 40 40 40 39 39 40 40 40 40 41 41
63 64 64 64 63 64 63 63 63 64 63 63 64 64 63 61 60 59 58 57 55 53 51 49 48 47 46 45 45 44 43 42 42 41 41 40 40 40 40 41 41 42 42
59 60 62 63 63 63 62 62 63 64 62 62 64 64 63 62 61 60 59 58 57 56 54 51 49 48 48 47 46 45 44 44 43 42 41 41 42 41 41 42 42 43 42
56 57 59 61 61 62 62 62 62 63 63 62 62 62 63 62 62 60 59 59 59 58 56 53 51 50 49 49 47 46 45 45 44 44 43 42 43 42 42 42 42 43 43
54 54 56 59 60 61 60 60 61 61 62 62 62 63 62 62 61 61 60 60 60 59 58 56 54 52 51 50 49 48 47 46 46 45 44 43 43 42 42 42 42 43 43
52 53 54 56 58 59 59 59 60 61 60 61 62 63 62 61 61 60 60 60 60 59 59 58 56 54 51 51 50 48 47 47 47 45 44 44 44 43 43 42 42 43 44
50 51 52 54 56 58 59 59 60 61 60 60 61 62 62 60 60 60 59 59 59 59 59 58 55 53 51 50 50 48 47 46 45 44 44 44 44 44 43 42 43 43 44
49 50 52 54 55 57 58 59 60 61 60 60 61 61 60 60 59 59 59 59 59 58 58 57 55 53 51 50 49 48 47 46 45 44 44 44 44 44 44 43 43 43 44
48 51 51 52 54 55 56 57 58 59 60 60 60 60 58 58 57 57 57 58 58 57 57 55 55 53 51 49 48 48 46 45 44 44 44 44 44 44 43 43 43 43 44
49 50 51 51 53 54 53 54 57 59 60 59 59 58 58 56 55 55 55 55 55 54 54 54 53 51 51 49 47 47 45 44 44 43 43 44 44 43 42 42 43 43 44
48 49 50 51 51 51 52 52 53 55 58 58 57 56 56 55 53 54 54 54 53 53 53 51 50 49 49 48 47 47 45 44 43 42 43 44 44 42 42 41 42 43 44
46 47 49 50 51 51 51 49 49 52 54 54 54 54 54 53 52 52 52 52 50 50 51 50 48 47 46 46 46 45 44 43 42 42 42 43 42 41 41 41 42 43 43
45 45 47 48 49 49 49 48 47 49 50 51 52 52 52 51 50 49 50 49 48 48 48 48 47 45 44 44 45 44 43 43 42 41 41 41 40 40 40 40 41 42 42
43 43 44 45 46 46 47 47 46 47 47 48 48 48 49 48 47 46 45 46 45 45 46 46 45 43 43 42 43 43 42 42 41 41 40 39 39 40 40 40 41 41 41
41 40 41 41 41 42 44 45 44 44 43 44 44 44 45 45 44 44 43 42 43 43 44 45 44 41 40 40 41 41 42 41 39 38 37 37 37 38 40 39 39 39 39
38 37 37 37 37 38 39 40 40 39 40 42 41 42 42 42 43 43 42 41 41 41 41 43 43 39 37 37 38 39 39 39 37 36 36 36 37 38 38 38 38 38 37
33 32 32 32 33 34 34 35 34 35 36 39 40 40 39 39 40 41 40 40 40 40 41 41 40 38 36 36 37 37 37 37 36 36 35 36 37 36 36 36 36 36 37
31 29 29 29 29 29 29 30 31 32 34 36 37 38 37 37 38 39 39 38 38 38 39 39 38 36 34 35 36 37 36 36 35 34 34 34 34 33 33 33 34 35 36
29 28 27 26 26 26 27 28 31 31 32 32 34 34 34 34 37 37 37 36 36 36 36 35 36 35 33 32 34 35 34 33 32 32 32 31 30 30 31 32 33 34 35
26 25 25 24 23 23 25 27 30 29 28 28 30 31 31 32 33 34 34 34 34 33 33 34 33 33 32 30 31 31 31 30 29 30 29 28 28 29 30 31 32 33 34
Wind_Direction
258 258 257 257 257 257 256 256 257 257 258 258 257 257 257 256 256 256 257 258 258 258 261 264 266 268 270 273 276 278 279 282 285 286 289 291 293 294 296 298 300 301 302
260 259 258 257 257 257 256 256 256 256 256 257 257 256 257 256 256 256 256 259 259 258 259 263 265 267 269 272 274 277 278 279 282 284 286 289 291 293 295 297 299 300 302
260 259 258 258 257 257 257 256 256 256 256 255 256 255 255 256 256 257 256 257 259 259 258 261 264 266 268 270 272 274 277 278 280 282 284 287 290 292 294 297 299 300 301
260 259 258 258 257 257 257 257 257 256 256 255 255 254 255 255 256 256 256 256 257 258 258 259 262 264 266 269 270 272 275 277 279 282 284 286 288 291 293 295 298 301 301
261 259 258 258 257 257 257 257 257 257 256 255 254 254 254 254 255 254 255 256 256 257 258 259 260 262 265 267 270 272 274 276 278 280 282 285 287 289 291 293 296 300 301
261 259 258 258 257 256 256 256 257 256 255 255 254 254 253 253 253 254 255 255 255 256 257 258 259 260 263 265 268 270 273 274 276 278 280 283 286 288 290 292 295 298 301
262 259 258 257 257 256 255 255 256 256 255 254 253 253 253 253 253 253 254 254 255 256 256 258 258 259 261 263 266 269 272 273 275 277 279 282 284 287 289 291 294 297 300
263 259 257 256 256 256 255 255 255 255 254 254 253 253 252 253 253 252 253 254 254 254 255 257 258 258 259 262 264 266 269 272 274 276 278 280 283 285 287 290 293 296 298
263 260 257 255 255 256 255 255 255 254 254 253 253 252 252 253 252 251 252 253 253 253 253 256 258 258 259 260 263 265 267 270 273 275 277 279 281 283 285 289 292 295 297
264 262 259 257 256 256 255 254 254 253 253 252 252 252 252 253 252 251 251 252 252 253 253 254 257 258 258 259 261 264 266 269 272 273 275 279 281 282 285 288 292 294 296
265 263 261 259 257 257 255 253 252 252 252 252 251 251 251 252 252 252 251 251 251 252 253 254 255 256 257 258 260 263 265 267 269 272 274 277 279 282 284 287 291 293 295
265 263 262 260 258 257 255 253 252 252 252 251 251 250 251 252 252 252 252 250 251 251 252 253 254 255 257 258 259 261 264 267 269 271 273 275 278 281 283 286 289 292 295
265 264 264 261 259 258 255 253 252 252 251 251 251 251 251 251 251 251 251 251 251 251 250 251 252 254 255 256 258 259 262 265 268 270 271 275 277 279 281 284 287 292 295
267 265 265 262 259 258 256 254 253 251 250 250 250 250 251 251 250 251 251 251 251 250 250 250 250 252 254 255 257 258 261 264 266 268 270 273 275 278 281 284 287 291 295
269 266 266 264 261 259 257 255 254 251 250 250 249 249 250 250 250 249 249 250 251 251 249 249 249 250 252 253 255 256 259 263 266 268 269 272 275 278 281 285 287 291 295
271 269 267 264 261 260 257 255 253 251 249 248 247 248 249 249 248 247 248 248 250 250 249 247 247 248 250 252 254 256 257 260 264 267 268 271 274 277 281 286 289 291 294
273 269 267 264 261 258 256 254 253 250 248 246 246 247 247 246 247 247 247 247 248 249 249 247 247 248 249 251 253 255 256 258 262 265 268 271 272 276 281 286 289 292 294
274 271 268 263 259 256 256 254 252 250 247 245 245 246 245 246 246 247 247 246 246 247 248 246 245 246 248 249 252 253 254 257 260 263 268 270 272 277 281 285 289 292 293
276 273 268 263 259 256 253 252 251 249 246 244 244 245 244 245 245 246 245 245 245 245 245 244 243 244 245 247 250 252 254 256 260 263 266 268 272 277 281 285 289 292 294
277 274 269 264 260 255 252 251 249 246 245 244 242 242 241 243 243 242 242 243 243 242 242 241 241 241 243 245 248 251 252 255 259 261 264 268 272 276 280 284 289 291 294
279 274 269 264 259 255 252 250 248 244 244 241 239 238 239 239 239 239 240 240 240 240 240 240 239 239 240 244 248 249 252 254 256 260 264 268 272 277 281 285 288 291 294
280 274 269 263 258 254 251 249 248 243 239 237 236 237 237 237 237 236 237 238 238 237 236 237 238 238 239 243 246 248 249 252 255 259 263 267 271 276 281 284 287 291 295
280 273 266 262 259 254 251 248 243 238 234 232 233 234 234 235 234 234 235 235 234 234 235 236 236 237 240 242 244 246 247 252 255 258 263 269 273 277 281 283 286 291 295
277 271 266 261 258 253 246 240 236 234 232 231 231 232 231 231 231 231 231 232 232 231 232 232 235 235 238 240 243 244 246 250 255 260 265 270 274 277 279 282 287 291 295
275 270 265 261 258 250 241 235 232 229 229 229 228 228 227 227 226 227 229 229 230 230 228 229 231 232 236 240 243 243 244 248 255 259 264 269 274 278 281 284 289 292 296
276 269 263 259 256 245 233 231 228 225 224 221 221 223 223 222 222 226 226 226 227 224 224 227 230 232 234 237 239 240 243 248 254 258 263 269 274 279 283 287 291 293 297
Height
5764 5766 5768 5770 5772 5774 5776 5779 5781 5783 5785 5787 5789 5792 5794 5796 5798 5800 5802 5804 5806 5807 5808 5809 5809 5810 5810 5810 5809 5809 5808 5807 5806 5805 5803 5802 5800 5797 5795 5793 5790 5787 5784
5751 5753 5755 5757 5760 5762 5764 5767 5769 5771 5774 5776 5779 5781 5784 5786 5788 5791 5793 5795 5797 5799 5800 5801 5802 5802 5803 5803 5803 5802 5801 5801 5800 5798 5797 5795 5793 5791 5789 5786 5783 5780 5777
5737 5739 5742 5744 5746 5748 5751 5754 5756 5759 5762 5764 5767 5770 5773 5776 5778 5781 5783 5786 5788 5790 5791 5793 5794 5795 5795 5795 5795 5795 5794 5793 5792 5791 5790 5788 5786 5784 5782 5779 5776 5773 5770
5721 5723 5726 5729 5731 5734 5737 5739 5742 5745 5748 5751 5755 5758 5761 5764 5767 5770 5772 5775 5778 5780 5782 5784 5785 5786 5786 5787 5787 5787 5786 5786 5785 5784 5783 5781 5779 5777 5774 5772 5769 5766 5763
5704 5706 5709 5712 5715 5718 5721 5724 5727 5730 5733 5737 5741 5745 5748 5752 5755 5758 5761 5764 5767 5770 5772 5774 5776 5777 5778 5778 5779 5779 5778 5778 5777 5776 5775 5773 5771 5769 5767 5764 5761 5758 5755
5685 5688 5691 5694 5697 5700 5704 5707 5710 5713 5717 5721 5725 5730 5734 5738 5742 5746 5749 5752 5756 5759 5762 5764 5765 5767 5768 5769 5770 5770 5769 5769 5768 5768 5767 5765 5763 5761 5759 5756 5753 5750 5747
5666 5669 5672 5676 5679 5682 5687 5690 5694 5697 5701 5705 5709 5714 5719 5723 5728 5733 5737 5740 5744 5747 5750 5753 5755 5757 5758 5760 5760 5761 5761 5760 5760 5759 5758 5756 5755 5753 5750 5748 5745 5742 5738
5647 5649 5653 5657 5661 5665 5669 5673 5677 5681 5685 5689 5693 5697 5703 5709 5713 5718 5723 5727 5731 5734 5738 5741 5743 5745 5748 5749 5750 5751 5751 5751 5750 5749 5749 5747 5746 5744 5742 5739 5736 5733 5730
5629 5632 5636 5640 5643 5647 5652 5656 5660 5664 5668 5673 5676 5681 5686 5693 5699 5704 5708 5713 5717 5721 5725 5728 5731 5734 5736 5738 5740 5740 5741 5741 5741 5740 5739 5738 5736 5735 5733 5730 5728 5724 5721
5613 5615 5619 5622 5626 5629 5634 5639 5643 5647 5651 5656 5661 5665 5671 5676 5682 5689 5694 5698 5703 5707 5712 5716 5719 5722 5724 5727 5729 5730 5730 5731 5730 5730 5730 5728 5727 5725 5723 5721 5718 5715 5712
5598 5600 5603 5606 5609 5613 5617 5621 5626 5630 5634 5640 5645 5650 5655 5660 5666 5672 5679 5684 5688 5693 5698 5702 5705 5709 5712 5715 5717 5719 5719 5720 5720 5720 5719 5719 5717 5716 5714 5712 5709 5706 5702
5583 5585 5587 5590 5593 5596 5600 5605 5609 5613 5618 5623 5629 5634 5639 5645 5651 5656 5662 5669 5674 5679 5683 5688 5692 5696 5699 5702 5705 5707 5708 5709 5709 5709 5709 5708 5707 5706 5704 5702 5700 5697 5693
5569 5571 5573 5575 5577 5580 5584 5588 5592 5597 5602 5607 5612 5618 5624 5630 5635 5640 5646 5652 5658 5664 5668 5673 5678 5682 5686 5689 5692 5695 5696 5697 5698 5698 5699 5698 5697 5696 5694 5692 5690 5687 5683
5555 5557 5558 5560 5562 5564 5568 5571 5576 5581 5585 5591 5596 5602 5608 5614 5620 5625 5630 5636 5642 5648 5653 5660 5665 5669 5672 5676 5680 5683 5685 5686 5687 5688 5688 5688 5687 5686 5684 5682 5680 5677 5673
5541 5542 5543 5544 5546 5548 5551 5555 5559 5564 5569 5575 5580 5586 5593 5599 5604 5610 5615 5621 5626 5632 5640 5646 5651 5656 5660 5663 5667 5670 5673 5675 5676 5677 5677 5677 5677 5676 5674 5672 5669 5666 5663
5527 5527 5527 5528 5530 5533 5535 5538 5543 5548 5552 5559 5565 5571 5577 5583 5589 5594 5600 5606 5611 5617 5624 5632 5638 5643 5647 5651 5655 5658 5661 5663 5664 5665 5666 5666 5666 5665 5664 5662 5659 5656 5653
5513 5512 5512 5513 5515 5517 5519 5522 5527 5532 5537 5543 5549 5555 5562 5568 5574 5580 5586 5592 5597 5603 5609 5618 5625 5630 5634 5639 5643 5646 5649 5651 5653 5654 5655 5655 5655 5655 5654 5652 5649 5646 5642
5498 5498 5497 5497 5499 5502 5504 5507 5511 5516 5522 5528 5534 5541 5548 5554 5560 5566 5572 5579 5585 5590 5596 5604 5611 5617 5622 5626 5630 5634 5637 5640 5642 5643 5644 5644 5644 5644 5643 5641 5638 5636 5632
5484 5483 5482 5482 5484 5487 5490 5493 5497 5502 5508 5514 5521 5527 5534 5540 5547 5553 5560 5566 5572 5578 5584 5591 5598 5604 5610 5614 5619 5623 5626 5628 5631 5632 5633 5634 5634 5634 5633 5631 5628 5625 5622
5470 5469 5468 5468 5470 5473 5476 5479 5483 5489 5495 5501 5508 5514 5521 5528 5534 5541 5547 5554 5560 5566 5573 5579 5586 5592 5598 5603 5607 5611 5615 5618 5620 5621 5622 5624 5624 5623 5622 5621 5619 5616 5613
5458 5456 5455 5456 5458 5460 5463 5467 5470 5476 5482 5489 5496 5502 5509 5516 5523 5529 5536 5543 5549 5555 5562 5568 5575 5582 5587 5592 5597 5601 5605 5607 5609 5612 5613 5614 5614 5613 5612 5611 5609 5606 5603
5447 5445 5445 5445 5447 5450 5452 5456 5460 5465 5471 5478 5485 5492 5499 5506 5513 5519 5526 5532 5539 5545 5552 5559 5566 5572 5578 5583 5587 5591 5595 5597 5600 5603 5603 5604 5604 5604 5603 5602 5600 5597 5594
5438 5436 5436 5437 5439 5441 5444 5447 5450 5455 5461 5468 5475 5482 5489 5496 5502 5509 5516 5522 5529 5536 5543 5550 5556 5563 5568 5573 5578 5582 5586 5589 5591 5593 5594 5595 5595 5595 5594 5592 5590 5588 5585
5430 5429 5428 5429 5431 5432 5435 5439 5442 5448 5454 5460 5467 5473 5480 5487 5493 5500 5507 5513 5520 5527 5534 5541 5548 5554 5560 5564 5569 5573 5577 5580 5582 5584 5585 5586 5586 5585 5585 5584 5582 5579 5576
5422 5422 5422 5422 5423 5425 5428 5432 5436 5441 5447 5453 5459 5466 5472 5478 5486 5492 5499 5506 5513 5520 5526 5533 5540 5547 5552 5556 5560 5564 5568 5571 5573 5575 5577 5578 5578 5577 5577 5575 5573 5571 5567
5414 5415 5415 5416 5417 5419 5422 5426 5430 5435 5441 5448 5454 5460 5466 5472 5478 5485 5492 5499 5506 5513 5519 5526 5533 5539 5544 5548 5553 5557 5561 5564 5566 5568 5569 5570 5570 5570 5569 5567 5565 5562 5559